Starlink 35952

operational
NORAD ID: 66520 Int'l Des: 2025-265 Owner: SPXS Country: US Constellation: starlink
LEOCIRCULAR

About Starlink 35952

Description loading...

Live Position

Loading 3D Globe...

Upcoming Passes

Altitude History

Altitude vs Time

uPlot chart will show altitude changes over time

Two-Line Element Set

1 66520U 25265E 25338.75002315 -.01823595 00000-0 -15001-1 0 9996
2 66520 42.9998 101.2416 0001412 279.1737 3.0326 15.72741507 3715
Epoch: Dec 4, 2025 • Age: 11 hours

Current Status

Altitude 366.7 km
Velocity 7.69 km/s
Sub-Earth Point -38.70°S, 164.79°W
Launch Date Nov 19, 2025
Age 16 days
Type internet

Technical Details

Classification Payload
Mass 575.00 kg
Dry Mass 530.00 kg
Total Mass 575.00 kg
Length 0.30 m
Diameter 4.10 m
Span 29.00 m
Shape Box + pan
Manufacturer SPXS
Bus Type Starlink V2MO
Phase Status In Orbit
Owner/State SPXS/US

Large Constellations

Loading constellations...